This is the latest recevied weather packets stored in our database for station/object KC8RFE-1. If no packets are shown the sender has not sent any weather packets the latest 1 day(s).
| Time | Temp. | Humidity | Pressure | Rain* | Wind** | Luminosity | Snow |
|---|---|---|---|---|---|---|---|
| 1778043210 | 8.33° C | 6% | - | 0 mm | 0 m/s | - | - |
| 1778042910 | 8.33° C | 6% | - | 0 mm | 0 m/s | - | - |
| 1778042610 | 8.33° C | 6% | - | 0 mm | 0 m/s | - | - |
| 1778042310 | 8.33° C | 6% | - | 0 mm | 0.45 m/s, 341° | - | - |
| 1778042010 | 8.33° C | 6% | - | 0 mm | 0 m/s | - | - |
| 1778041710 | 8.33° C | 6% | - | 0 mm | 0 m/s | - | - |
| 1778041410 | 8.33° C | 6% | - | 0 mm | 0 m/s | - | - |
| 1778041110 | 8.33° C | 6% | - | 0 mm | 0 m/s | - | - |
| 1778040810 | 8.33° C | 6% | - | 0 mm | 0 m/s | - | - |
| 1778040510 | 8.33° C | 6% | - | 0 mm | 0 m/s | - | - |
| 1778040210 | 8.33° C | 6% | - | 0 mm | 0.89 m/s, 307° | - | - |
| 1778039909 | 8.33° C | 6% | - | 0 mm | 0.89 m/s, 4° | - | - |
| 1778039609 | 8.89° C | 7% | - | 0 mm | 1.34 m/s, 4° | - | - |
| 1778039309 | 8.89° C | 8% | - | 0 mm | 0 m/s | - | - |
| 1778039009 | 8.89° C | 8% | - | 0 mm | 0.45 m/s, 2° | - | - |
| 1778038709 | 8.89° C | 8% | - | 0 mm | 0.45 m/s, 266° | - | - |
| 1778038409 | 8.89° C | 8% | - | 0 mm | 1.34 m/s, 270° | - | - |
| 1778038109 | 8.89° C | 8% | - | 0 mm | 1.34 m/s, 270° | - | - |
| 1778037809 | 8.89° C | 8% | - | 0 mm | 0.45 m/s, 270° | - | - |
| 1778037509 | 8.89° C | 8% | - | 0 mm | 0.89 m/s, 270° | - | - |
| 1778037209 | 8.89° C | 8% | - | 0 mm | 0.89 m/s, 279° | - | - |
| 1778036909 | 8.89° C | 8% | - | 0 mm | 1.34 m/s, 270° | - | - |
| 1778036609 | 8.89° C | 8% | - | 0 mm | 1.34 m/s, 270° | - | - |
| 1778036309 | 8.89° C | 8% | - | 0 mm | 0.89 m/s, 270° | - | - |
| 1778036009 | 8.89° C | 8% | - | 0 mm | 0 m/s | - | - |
* Rain latest hour (hover to see other rain measurements)
** Current wind speed in m/s (hover to see current wind gust speed)